RH
69 81 83 78 75 57 67 81 84 76 66 74 77 74 63 56 62 72 80 80 76 74 71 74 74 78 79 80 81 77 75 73 78 81 82 85 88 80 82 83 73 72 76 74
71 80 67 65 68 72 80 85 83 73 66 79 85 75 62 61 66 78 77 79 79 79 76 76 80 80 81 84 84 80 71 69 74 81 81 82 82 91 86 82 80 79 82 84
72 70 60 65 77 78 83 84 84 87 81 78 81 66 56 58 75 79 78 81 82 82 82 80 80 82 85 91 90 76 73 72 73 77 80 83 86 90 92 87 86 85 86 92
77 66 68 80 82 75 81 71 83 87 94 96 79 83 70 66 69 68 78 85 82 82 81 83 83 83 87 89 83 84 77 74 72 75 82 84 87 94 93 88 88 88 87 93
72 74 78 79 76 73 71 75 88 90 97 92 86 94 71 80 62 58 67 78 78 81 85 86 84 86 87 82 88 87 80 80 79 80 80 88 93 94 92 91 89 89 95 93
82 71 73 72 72 72 73 83 82 92 91 92 83 89 82 79 70 66 73 75 73 78 84 86 86 83 80 83 87 87 84 84 81 84 85 92 95 97 97 89 92 94 95 96
79 84 78 72 79 75 80 83 88 78 90 82 85 94 82 60 60 68 64 69 75 79 86 88 89 82 80 82 87 85 82 84 84 85 87 89 94 94 96 95 97 93 95 95
90 57 81 74 75 78 89 84 90 69 93 90 84 95 72 63 65 77 77 82 84 85 87 88 88 76 81 81 85 89 85 87 84 83 88 88 89 95 94 93 95 96 96 93
89 71 73 74 72 69 86 92 81 94 92 87 92 76 55 63 73 76 76 81 83 84 84 86 85 72 78 81 83 87 88 81 83 85 84 85 88 90 93 91 90 92 92 89
82 86 65 72 71 78 80 78 83 89 73 63 78 84 77 68 64 57 59 64 69 75 82 85 75 68 75 77 84 85 88 83 82 86 80 79 81 82 85 86 87 85 84 78
78 82 63 83 86 84 89 90 90 80 87 93 91 70 72 67 65 56 56 59 66 70 76 82 75 61 67 75 83 82 83 84 81 77 77 77 78 76 77 79 80 80 77 74
79 85 94 71 76 70 81 79 86 86 54 92 90 79 55 60 65 73 67 60 63 69 73 82 72 54 62 70 67 71 65 66 68 85 70 70 72 67 71 68 69 68 66 67
72 78 85 41 55 73 80 79 78 72 79 85 86 54 42 67 71 71 74 67 68 66 65 70 58 55 59 64 61 64 66 64 65 65 63 58 54 56 54 53 54 54 59 61
64 78 57 51 31 68 77 72 72 73 92 83 70 48 28 28 30 31 36 43 47 49 54 69 61 57 58 59 59 62 67 66 65 68 69 70 71 71 70 66 68 69 68 69
73 85 88 80 72 71 67 63 67 83 68 65 47 50 33 33 40 43 43 45 49 49 50 65 64 62 60 58 60 61 66 68 66 68 69 70 73 74 74 74 75 76 76 76
83 78 88 91 75 80 81 75 73 65 59 60 55 55 36 34 37 47 49 49 51 48 49 55 67 62 61 61 59 58 64 69 68 68 67 68 70 72 74 75 76 78 78 78
86 92 86 85 79 76 62 59 63 69 75 64 74 50 36 40 40 48 46 44 46 46 45 48 60 66 58 59 54 56 61 68 71 68 67 69 71 73 76 75 77 78 82 82
85 84 84 91 76 50 30 48 50 58 58 60 56 52 46 44 48 48 47 47 44 45 46 50 59 67 63 60 59 56 61 69 71 70 69 70 74 74 76 78 78 81 85 83
74 77 72 88 95 61 35 54 57 57 31 45 44 43 43 48 52 42 42 47 43 44 48 55 61 66 65 60 58 57 64 68 70 71 72 72 75 76 77 79 80 82 85 86
77 71 67 92 92 65 30 41 46 38 30 25 43 43 46 50 44 35 33 44 48 47 48 51 58 68 68 64 59 57 60 65 66 67 68 71 75 76 78 78 80 81 86 83
92 91 83 79 93 76 55 53 41 40 24 28 37 34 42 45 38 30 41 46 48 48 48 53 66 68 66 63 59 57 60 61 58 68 69 73 75 77 76 79 81 86 84 84
87 92 94 86 94 90 56 53 50 36 32 32 32 31 36 42 40 42 38 43 48 53 54 54 62 66 68 62 58 60 61 55 67 69 72 76 79 73 71 77 75 81 86 86
60 58 69 71 67 45 49 41 36 40 42 38 43 38 44 44 43 40 41 42 42 49 52 60 66 66 69 65 58 60 56 64 65 71 76 78 79 78 74 74 76 82 85 88
55 49 64 65 45 40 38 40 42 37 40 39 39 45 45 46 42 42 43 44 45 47 54 56 63 70 70 68 59 53 63 62 61 65 73 74 77 79 71 72 73 79 84 89
48 54 63 70 50 43 43 41 43 46 47 49 45 46 47 46 43 44 42 40 43 46 56 63 66 68 67 69 62 56 62 62 62 65 70 76 76 75 72 76 77 77 79 83
55 56 64 64 45 46 44 39 42 46 47 46 49 53 52 51 48 47 44 42 45 47 51 66 70 73 68 73 70 62 60 62 64 68 73 74 73 76 76 77 81 72 73 74
Wind_Speed
5 9 3 1 2 3 4 0 3 5 3 8 4 14 20 15 7 6 5 5 6 7 4 6 5 6 6 3 6 7 9 11 8 8 8 5 6 8 7 5 8 7 5 6
7 4 2 2 1 1 1 2 5 6 3 4 6 20 12 6 2 2 6 6 7 6 6 6 7 6 6 6 7 8 10 11 9 7 7 6 7 7 8 7 6 6 6 6
6 2 1 2 2 3 2 3 2 5 7 1 9 8 6 3 3 3 5 5 5 7 8 7 7 8 7 6 7 9 10 11 9 10 7 7 7 6 4 4 4 4 5 5
4 1 1 1 2 1 3 3 2 5 5 3 6 6 6 4 9 6 9 8 9 8 6 7 8 7 7 6 6 7 9 12 11 12 8 10 8 7 4 4 4 5 6 6
3 3 2 2 2 1 4 2 3 1 1 4 1 4 9 4 6 7 7 9 9 8 7 9 8 6 7 6 7 7 8 9 11 11 9 8 9 7 7 5 5 4 3 5
1 1 2 2 2 1 4 4 5 3 1 4 2 5 8 5 7 5 3 4 7 8 8 8 7 6 6 6 6 6 7 8 9 10 9 10 10 9 5 4 3 2 3 5
5 1 1 1 2 2 7 6 4 7 5 6 2 3 13 8 7 7 9 8 8 8 8 8 8 6 5 6 6 6 6 8 8 9 9 10 10 8 7 7 4 4 4 4
4 7 1 2 3 4 2 5 6 4 2 7 2 7 10 6 5 7 7 8 7 9 8 8 8 7 7 6 5 6 7 6 7 8 9 8 8 6 5 7 5 4 5 5
3 4 1 3 1 4 1 1 3 3 2 4 4 9 11 6 6 4 8 7 10 9 9 9 8 7 7 6 6 5 6 6 6 7 6 8 7 7 7 7 6 5 6 5
3 4 2 2 1 1 2 5 2 3 2 6 7 7 9 5 6 5 5 8 9 7 8 8 7 7 6 5 4 5 5 4 4 5 4 5 7 7 7 6 8 7 6 6
4 4 5 1 5 6 2 1 1 3 4 4 5 11 9 10 8 7 8 8 8 8 8 7 7 6 6 4 4 5 4 4 4 4 4 4 4 5 5 5 5 5 5 5
1 4 4 9 1 1 3 6 5 5 4 3 2 14 4 8 7 6 9 8 8 7 8 8 8 6 5 6 5 5 3 2 2 3 3 3 5 5 5 5 5 4 5 5
4 1 5 7 5 2 4 5 5 4 3 7 5 12 3 4 7 8 8 10 9 8 9 8 7 7 7 6 6 6 6 5 4 1 1 2 3 3 4 4 4 5 5 5
4 4 7 8 5 3 5 5 6 7 4 5 13 17 23 13 13 13 10 10 10 9 9 7 7 8 7 7 7 6 6 5 4 2 2 2 2 3 3 3 4 4 4 4
4 6 5 8 14 10 15 15 11 12 13 10 3 11 23 15 10 9 9 9 9 10 9 8 8 8 8 7 7 6 6 6 5 5 3 3 2 2 3 3 3 2 3 3
1 5 1 7 14 9 12 17 19 21 23 22 27 32 29 28 18 11 9 8 9 10 9 9 8 8 10 10 9 7 7 7 6 6 6 4 4 3 2 1 1 2 2 2
4 2 4 8 4 9 10 10 14 9 6 20 16 22 14 18 13 10 10 7 9 9 9 9 9 9 10 11 11 11 9 7 7 6 6 6 5 4 4 3 3 2 1 0
6 4 2 7 7 3 6 3 6 12 7 18 13 13 12 13 9 11 11 10 12 8 8 8 7 7 8 6 8 6 7 7 7 7 7 6 6 6 6 5 5 3 3 2
5 5 2 3 3 12 7 2 5 6 8 13 20 17 18 7 7 10 9 10 13 8 8 7 6 6 5 8 8 9 8 7 7 7 7 7 7 6 4 4 5 4 4 3
5 4 5 2 2 7 5 1 0 2 7 3 7 9 6 2 4 7 6 5 7 8 6 7 7 4 5 6 8 9 9 9 10 9 9 8 7 6 6 7 5 2 2 3
4 2 12 8 5 13 12 8 5 1 7 1 4 4 4 5 8 7 7 7 5 6 9 6 5 7 8 6 8 9 9 13 12 9 8 7 6 6 6 4 3 3 3 1
9 9 6 6 5 14 9 5 8 7 3 2 4 4 6 10 11 11 14 11 10 10 9 7 7 8 6 7 9 10 11 11 7 7 7 7 6 5 5 6 4 3 3 2
4 9 8 15 13 3 7 9 12 0 4 10 7 14 10 12 12 15 13 12 13 12 9 6 7 8 6 7 10 10 12 8 8 8 8 7 7 6 5 5 5 3 3 3
6 7 7 1 10 18 15 15 15 16 14 14 14 11 10 13 16 16 13 12 12 10 10 7 7 8 8 8 10 14 7 8 10 10 9 8 7 7 5 4 4 4 4 3
6 4 4 8 17 18 17 18 15 15 11 11 10 10 15 18 18 14 14 17 14 12 8 6 8 8 10 7 10 10 9 10 10 9 8 7 6 7 5 5 5 4 4 5
10 22 12 16 18 16 18 20 20 22 20 21 21 21 20 15 16 15 15 14 12 13 11 7 8 8 10 8 9 10 12 13 12 10 8 8 7 5 5 5 3 8 8 9
Wind_Direction
6 68 89 268 21 132 117 158 273 262 275 314 242 280 291 298 260 269 235 250 277 285 284 292 286 290 296 288 328 329 326 321 320 320 316 312 310 305 300 279 266 251 258 264
28 82 205 266 350 66 77 329 292 281 252 302 334 300 292 288 295 202 210 237 260 293 305 294 306 304 307 302 312 313 320 318 314 305 295 282 288 290 283 276 278 265 261 253
112 150 163 54 355 0 264 218 286 249 317 297 316 306 334 343 314 266 249 245 265 263 283 296 302 300 300 295 297 319 312 304 311 298 287 284 283 270 279 297 294 273 266 254
87 240 72 48 249 177 292 198 297 313 21 295 36 283 301 316 296 255 252 241 254 264 267 276 284 297 319 306 309 298 308 316 315 312 300 288 288 284 266 279 278 292 290 268
240 169 198 224 225 179 249 345 311 347 49 18 358 68 270 338 289 283 271 243 249 252 251 270 279 287 300 305 309 313 315 316 317 316 317 313 291 264 272 279 283 301 333 11
135 244 192 241 296 250 339 17 41 53 22 26 241 120 280 211 215 272 258 247 255 264 255 260 274 281 292 311 320 316 310 316 324 323 330 336 329 338 321 290 295 14 65 51
333 263 266 193 353 24 46 46 341 356 10 221 231 54 244 252 244 235 270 277 261 263 265 269 279 283 279 304 323 316 326 323 331 339 344 352 345 348 347 342 344 106 100 58
68 336 193 151 184 191 72 122 142 241 308 283 263 235 253 215 245 263 262 262 265 264 258 258 256 249 252 265 295 317 321 321 339 352 347 351 9 358 12 10 4 42 69 82
47 282 280 196 158 118 121 37 172 114 260 295 251 284 291 257 271 261 263 266 263 253 252 251 250 234 241 247 265 283 322 332 343 347 8 0 6 25 18 18 30 43 47 57
187 323 271 323 92 51 174 159 43 10 18 302 290 278 242 276 225 239 263 255 265 260 260 257 249 244 240 246 256 287 287 312 331 346 11 32 19 23 34 28 29 31 48 56
138 130 282 94 199 186 120 296 98 123 154 192 299 268 214 213 207 215 241 253 264 277 270 259 247 237 229 244 252 268 275 292 323 353 351 15 46 45 33 37 35 36 39 54
195 146 268 228 203 199 190 202 155 127 241 241 166 271 254 230 245 260 271 280 281 270 280 267 246 230 226 235 242 230 247 246 303 289 357 48 45 49 55 41 33 34 49 47
179 302 331 344 2 10 218 201 173 120 83 206 156 261 3 320 289 269 261 275 276 276 284 266 244 231 228 231 231 226 221 217 206 176 36 66 77 73 66 57 44 40 45 43
131 177 196 203 207 158 222 215 195 165 175 205 229 278 267 284 283 286 277 266 273 272 276 270 244 227 226 223 225 228 231 225 220 178 150 131 93 77 61 43 44 47 42 44
146 231 200 252 261 250 254 247 222 207 214 212 261 243 273 280 273 263 268 283 289 291 296 272 254 231 223 222 222 225 225 210 195 191 192 214 208 160 145 133 119 89 75 64
185 270 316 261 257 254 258 242 231 234 236 252 260 274 274 275 290 279 276 280 284 283 285 283 256 224 224 211 211 205 211 212 186 193 203 197 196 197 187 138 86 74 52 52
170 209 6 274 331 304 282 231 193 196 218 219 229 237 268 284 276 264 266 266 262 266 283 286 271 240 224 210 198 204 199 188 194 198 197 193 193 201 208 198 176 171 166 136
154 147 187 282 341 300 259 266 182 202 222 215 250 261 265 266 275 268 252 239 257 248 263 274 269 262 240 214 191 179 175 187 191 197 202 198 192 193 189 187 194 196 187 195
176 143 290 270 278 293 298 130 132 182 283 220 234 253 264 300 293 289 244 229 243 228 242 252 267 265 248 207 186 170 172 181 187 204 206 202 194 198 209 216 204 195 182 190
106 129 165 161 231 254 252 12 96 198 289 241 191 235 253 327 328 273 302 274 233 242 246 269 284 270 243 237 174 170 185 184 200 201 205 197 194 199 194 189 199 235 219 205
120 143 217 229 265 277 252 246 351 107 238 204 218 216 173 208 233 263 297 279 255 259 277 271 263 251 251 193 166 194 185 204 205 190 191 189 189 190 196 199 195 181 190 223
172 159 192 173 218 268 171 87 168 224 293 290 263 273 252 256 276 273 280 270 264 261 272 257 257 252 243 192 176 198 205 209 174 182 185 185 185 189 182 191 203 193 179 189
252 200 192 189 213 229 206 204 227 83 283 284 284 290 276 280 278 281 275 274 271 256 252 242 232 255 238 200 193 202 225 172 178 175 184 182 180 192 191 188 198 187 187 191
240 189 229 119 258 260 262 253 256 279 274 275 273 272 283 280 289 279 271 276 272 266 245 235 231 240 247 207 205 221 184 174 176 188 185 182 181 184 188 189 188 180 191 198
231 152 202 258 268 280 265 271 282 281 282 288 284 270 280 287 285 275 281 293 279 269 256 224 226 234 242 211 212 212 188 170 187 191 186 180 183 190 178 191 186 189 205 188
237 253 257 263 274 279 287 299 302 295 295 295 296 294 290 275 273 277 280 283 277 271 269 240 237 237 245 224 225 207 190 179 181 185 181 186 181 179 177 180 196 219 211 222